[[{"header":{"parameterUnit":"m.s-1","parameterCategory":1,"la1":30.2991,"la2":30.254,"lo1":-89.0895,"lo2":-89.0444,"dy":0.0017,"dx":0.0017,"nx":28,"ny":28,"refTime":"2025-11-06T03:00:00:Z","depth":0,"parameterNumber":2,"parameterNumberName":"U-component_of_WINDS"},"data":[0,0,0,0,0,0,0,0,0,0,0,0,0,0,0,0,0,0,0,0,0,0,0,0,0,0,0,0,0,0,0,0,0,0,0,0,0,0,0,0,0,0,0,0,0,0,0,0,0,0,0,0,0,0,0,0,0,0,-1.3047,-1.3047,0,-1.303,-1.303,-1.303,-1.2983,-1.2982,-1.2981,-1.298,-1.2964,-1.2965,-1.2965,0,0,0,0,0,0,0,0,0,0,0,0,0,-1.3043,-1.3043,-1.3047,-1.3047,-1.3047,-1.303,-1.303,-1.303,-1.2983,-1.2982,-1.2981,-1.298,-1.2964,-1.2964,-1.2965,0,0,0,0,0,0,0,0,0,0,0,0,0,-1.3037,-1.3043,-1.3047,-1.3022,-1.3019,-1.303,-1.303,-1.3029,-1.2984,-1.2982,-1.2981,-1.2979,-1.2964,-1.2964,-1.2965,-1.3,0,0,-1.2967,-1.2968,0,0,0,0,0,0,0,0,-1.3038,-1.3037,-1.3026,-1.3023,-1.3021,-1.3007,-1.3022,-1.302,-1.2984,-1.2997,-1.298,-1.2979,-1.298,-1.2979,-1.2979,-1.2999,-1.2998,-1.2967,-1.2968,-1.2968,-1.2968,0,0,0,0,0,0,0,-1.3038,-1.3038,-1.304,-1.3026,-1.3023,-1.3012,-1.301,-1.3022,-1.2997,-1.2996,-1.2993,-1.2991,-1.2978,-1.2979,-1.2978,-1.2998,-1.2967,-1.2968,-1.2969,-1.2969,-1.3048,-1.305,0,0,0,0,0,0,-1.3042,-1.3038,-1.3041,-1.304,-1.3026,-1.3013,-1.3011,-1.3013,-1.2997,-1.2993,-1.2992,-1.2989,-1.2978,-1.2978,-1.2978,-1.3019,-1.2968,-1.2969,-1.2969,-1.3047,-1.3049,-1.305,0,0,0,0,0,0,-1.3042,-1.3042,-1.3042,-1.3038,-1.3037,-1.3015,-1.3018,-1.3014,-1.3014,-1.2994,-1.299,-1.2997,-1.2977,-1.2977,-1.2995,-1.3017,-1.2969,-1.297,-1.3045,-1.3047,-1.3049,-1.31,0,0,0,0,0,0,-1.3042,-1.3043,-1.3055,-1.3039,-1.3038,-1.3058,-1.302,-1.3014,-1.3015,-1.3011,-1.2997,-1.2994,-1.2976,-1.2994,-1.2996,-1.3018,-1.297,-1.3042,-1.3046,-1.3049,-1.3096,-1.3104,-1.3111,0,0,0,0,0,-1.3042,-1.3069,-1.3055,-1.3056,-1.3052,-1.306,-1.3059,-1.3037,-1.3017,-1.303,-1.3018,-1.2994,-1.3015,-1.2997,-1.2998,-1.302,-1.3041,-1.3045,-1.3048,-1.3093,-1.3102,-1.311,0,0,0,0,0,0,-1.3088,-1.3067,-1.3051,-1.3074,-1.3069,-1.3052,-1.3067,-1.3048,-1.3048,-1.3044,-1.3017,-1.3015,-1.3038,-1.3031,-1.3011,-1.3054,-1.3024,-1.3029,-1.3058,-1.3067,-1.3074,-1.3075,-1.2971,0,0,0,0,0,-1.3101,-1.3108,-1.3089,-1.3111,-1.311,-1.3089,-1.3092,-1.3075,-1.3069,-1.3067,-1.3056,-1.3052,-1.3057,-1.3061,-1.3065,-1.3095,-1.3093,-1.3112,-1.3119,-1.3125,-1.3129,-1.3147,-1.3155,-1.3063,-1.3063,-1.3063,0,0,-1.3127,-1.3117,-1.3123,-1.3121,-1.3115,-1.3124,-1.3088,-1.3098,-1.3105,-1.3069,-1.3086,-1.3078,-1.3072,-1.3097,-1.3107,-1.3091,-1.3154,-1.313,-1.3134,-1.3135,-1.3151,-1.316,-1.3168,-1.3065,-1.3065,-1.3064,0,0,-1.318,-1.3173,-1.3191,-1.3187,-1.3179,-1.3165,-1.317,-1.3156,-1.315,-1.3166,-1.314,-1.3149,-1.3158,-1.3155,-1.3155,-1.3211,-1.319,-1.3213,-1.325,-1.3268,-1.3275,-1.3282,-1.3303,-1.3311,-1.3217,-1.3217,-1.3217,0,-1.3214,-1.3227,-1.3203,-1.3216,-1.3217,-1.3185,-1.3205,-1.3201,-1.3196,-1.3197,-1.318,-1.3193,-1.3187,-1.3212,-1.3226,-1.3226,-1.3232,-1.3214,-1.3276,-1.3282,-1.3288,-1.3308,-1.3316,-1.322,-1.322,-1.3219,-1.3219,0,-1.327,-1.3279,-1.3295,-1.3291,-1.3293,-1.331,-1.329,-1.3296,-1.328,-1.3269,-1.3288,-1.3279,-1.3282,-1.3287,-1.3271,-1.331,-1.3301,-1.3281,-1.325,-1.33,-1.3318,-1.3326,-1.3224,-1.3223,-1.3222,-1.3222,0,0,-1.335,-1.3334,-1.334,-1.3339,-1.3329,-1.3336,-1.3353,-1.3355,-1.3362,-1.3359,-1.3373,-1.3384,-1.3365,-1.3365,-1.3349,-1.3365,-1.3412,-1.3342,-1.3342,-1.3357,-1.3457,-1.3474,-1.3483,-1.3399,-1.34,-1.3401,-1.3458,0,-1.3401,-1.3426,-1.3407,-1.3437,-1.3446,-1.3417,-1.3432,-1.3428,-1.3419,-1.3427,-1.3416,-1.3425,-1.3399,-1.3399,-1.3413,-1.3403,-1.3432,-1.3399,-1.3413,-1.3413,-1.3415,-1.3492,-1.3509,-1.3563,-1.3465,-1.3466,-1.3467,0,-1.3463,-1.3465,-1.3496,-1.3486,-1.3489,-1.3502,-1.3505,-1.3512,-1.3509,-1.3501,-1.3503,-1.3484,-1.3501,-1.3471,-1.3495,-1.3473,-1.3478,-1.3474,-1.3476,-1.3476,-1.3443,-1.3496,-1.3579,-1.3588,-1.3478,-1.3477,-1.3476,0,-1.352,-1.353,-1.355,-1.355,-1.3539,-1.3549,-1.3545,-1.354,-1.3544,-1.3547,-1.3549,-1.3554,-1.3557,-1.3562,-1.3545,-1.3525,-1.3572,-1.3541,-1.3568,-1.3568,-1.3579,-1.3579,-1.3666,-1.3581,-1.3581,-1.3581,-1.3581,0,-1.358,-1.36,-1.3576,-1.3588,-1.3611,-1.359,-1.3613,-1.3606,-1.3603,-1.3615,-1.359,-1.3602,-1.3579,-1.359,-1.3577,-1.36,-1.3601,-1.3597,-1.3593,-1.3599,-1.36,-1.3602,-1.3598,-1.3583,-1.3582,-1.3582,-1.3582,0,-1.3647,-1.3631,-1.3652,-1.364,-1.3638,-1.3656,-1.3647,-1.3659,-1.3649,-1.3664,-1.3667,-1.3652,-1.3663,-1.3647,-1.3656,-1.3648,-1.368,-1.3671,-1.3681,-1.3679,-1.3708,-1.3706,-1.38,-1.3812,-1.3719,-1.372,-1.372,0,-1.3686,-1.3701,-1.3692,-1.3698,-1.3696,-1.3706,-1.371,-1.3691,-1.3696,-1.3695,-1.3708,-1.3717,-1.3723,-1.3743,-1.3733,-1.3741,-1.3732,-1.3764,-1.3733,-1.3739,-1.3734,-1.3734,-1.3736,-1.3771,-1.3772,-1.3773,-1.3774,0,-1.3757,-1.375,-1.3756,-1.3761,-1.3767,-1.377,-1.3771,-1.3778,-1.3758,-1.3766,-1.3777,-1.3782,-1.3792,-1.3802,-1.3808,-1.3805,-1.3787,-1.3784,-1.3791,-1.3797,-1.3803,-1.3802,-1.37,-1.3782,-1.3781,-1.378,-1.378,-1.3779,-1.3812,-1.3825,-1.3822,-1.3831,-1.383,-1.3832,-1.3844,-1.3836,-1.3845,-1.3852,-1.384,-1.3855,-1.3854,-1.3859,-1.3859,-1.3872,-1.3858,-1.3867,-1.387,-1.3873,-1.3878,-1.3801,-1.3873,-1.3872,-1.3872,-1.3872,-1.3872,0,-1.3884,-1.388,-1.3889,-1.3892,-1.39,-1.3882,-1.3883,-1.3891,-1.3905,-1.3905,-1.3912,-1.3927,-1.3937,-1.3929,-1.3938,-1.395,-1.3942,-1.3953,-1.3953,-1.3953,-1.3889,-1.3883,-1.396,-1.396,-1.396,-1.396,-1.396,-1.396,-1.3922,-1.3943,-1.3936,-1.3958,-1.3955,-1.3969,-1.3972,-1.3975,-1.3975,-1.3992,-1.4001,-1.3996,-1.3994,-1.4003,-1.4013,-1.401,-1.4015,-1.403,-1.4025,-1.3966,-1.3957,-1.3949,-1.3943,-1.4031,-1.4031,-1.4088,-1.4088,-1.4088]},{"header":{"parameterUnit":"m.s-1","parameterCategory":1,"la1":30.2991,"la2":30.254,"lo1":-89.0895,"lo2":-89.0444,"dy":0.0017,"dx":0.0017,"nx":28,"ny":28,"refTime":"2025-11-06T03:00:00:Z","depth":0,"parameterNumber":3,"parameterNumberName":"V-component_of_WINDS"},"data":[0,0,0,0,0,0,0,0,0,0,0,0,0,0,0,0,0,0,0,0,0,0,0,0,0,0,0,0,0,0,0,0,0,0,0,0,0,0,0,0,0,0,0,0,0,0,0,0,0,0,0,0,0,0,0,0,0,0,1.5142,1.5142,0,1.5113,1.5112,1.5112,1.5151,1.5153,1.5154,1.5155,1.512,1.5118,1.5115,0,0,0,0,0,0,0,0,0,0,0,0,0,1.5227,1.5226,1.5142,1.5142,1.5141,1.5113,1.5112,1.5112,1.5151,1.5153,1.5154,1.5156,1.5121,1.5118,1.5115,0,0,0,0,0,0,0,0,0,0,0,0,0,1.5193,1.5225,1.5142,1.5158,1.5159,1.5113,1.5112,1.5112,1.5151,1.5153,1.5155,1.5157,1.5122,1.5118,1.5115,1.5051,0,0,1.5104,1.5103,0,0,0,0,0,0,0,0,1.5195,1.519,1.5156,1.5156,1.5158,1.5138,1.5129,1.5091,1.515,1.5153,1.5155,1.5158,1.5124,1.512,1.511,1.5049,1.5048,1.5104,1.5102,1.5101,1.51,0,0,0,0,0,0,0,1.5197,1.5191,1.513,1.5155,1.5156,1.5164,1.5162,1.5122,1.5127,1.5153,1.5156,1.5152,1.5125,1.5113,1.5109,1.5047,1.5104,1.5101,1.5099,1.5098,1.4931,1.4929,0,0,0,0,0,0,1.5199,1.5193,1.5131,1.513,1.5182,1.5161,1.5158,1.5142,1.5127,1.5127,1.5151,1.5154,1.5118,1.5113,1.5108,1.5031,1.5101,1.5097,1.5095,1.4934,1.4931,1.4928,0,0,0,0,0,0,1.52,1.5193,1.5133,1.5162,1.5155,1.5157,1.5139,1.514,1.5129,1.5125,1.5126,1.5138,1.5119,1.5113,1.5065,1.5031,1.5096,1.5093,1.4937,1.4933,1.493,1.4878,0,0,0,0,0,0,1.5203,1.5193,1.517,1.5161,1.5153,1.5091,1.5137,1.5138,1.5123,1.5128,1.5114,1.5114,1.5121,1.507,1.5062,1.5027,1.509,1.494,1.4935,1.4931,1.4882,1.4873,1.4865,0,0,0,0,0,1.5206,1.5156,1.5169,1.5161,1.5125,1.5089,1.5084,1.5095,1.5121,1.5096,1.5094,1.5114,1.5036,1.5065,1.5056,1.502,1.4942,1.4936,1.4931,1.4886,1.4875,1.4865,0,0,0,0,0,0,1.5158,1.5155,1.5169,1.5115,1.5102,1.5096,1.5066,1.5082,1.506,1.5065,1.5078,1.5074,1.5023,1.5017,1.5048,1.4957,1.4993,1.4986,1.4962,1.4951,1.4942,1.4944,1.5087,0,0,0,0,0,1.5142,1.5115,1.5113,1.5065,1.5058,1.5063,1.5048,1.5057,1.5044,1.5038,1.5032,1.5017,1.4989,1.497,1.4944,1.4883,1.4879,1.4853,1.4844,1.4837,1.483,1.4795,1.4783,1.4911,1.4911,1.4911,0,0,1.5107,1.5102,1.5084,1.5056,1.5047,1.5017,1.5058,1.5025,1.5002,1.5032,1.4986,1.4982,1.4965,1.491,1.4885,1.4903,1.4794,1.483,1.4824,1.4821,1.4788,1.4776,1.4766,1.4907,1.4908,1.4908,0,0,1.5028,1.5022,1.4982,1.4972,1.4959,1.4963,1.4953,1.4944,1.4942,1.4897,1.4919,1.4892,1.4844,1.4831,1.4818,1.4734,1.4751,1.4725,1.4678,1.4644,1.4634,1.4625,1.4593,1.4582,1.4719,1.4718,1.4718,0,1.4986,1.4943,1.4958,1.4923,1.4909,1.4938,1.4896,1.4885,1.4863,1.4852,1.4874,1.4814,1.4805,1.4746,1.4726,1.4715,1.4703,1.4726,1.4634,1.4626,1.4617,1.4587,1.4576,1.4715,1.4716,1.4716,1.4716,0,1.4891,1.4861,1.4829,1.4809,1.4792,1.4753,1.4761,1.4742,1.4753,1.4754,1.4707,1.4697,1.4669,1.4657,1.4667,1.4599,1.461,1.4633,1.4669,1.4602,1.4574,1.4562,1.4711,1.4712,1.4713,1.4714,0,0,1.4779,1.4769,1.4757,1.4748,1.4735,1.4711,1.4674,1.4648,1.4631,1.4615,1.4582,1.4541,1.4562,1.4547,1.4556,1.4527,1.4459,1.4553,1.4552,1.4534,1.4382,1.4364,1.435,1.4471,1.4469,1.4468,1.4383,0,1.4699,1.4635,1.4648,1.4585,1.4556,1.4583,1.455,1.4538,1.4538,1.4512,1.4512,1.4482,1.4513,1.4504,1.4476,1.4473,1.4428,1.448,1.4439,1.4437,1.444,1.4336,1.4316,1.4237,1.4372,1.437,1.4369,0,1.4596,1.4578,1.4512,1.4504,1.4492,1.4463,1.444,1.4416,1.4402,1.4404,1.4388,1.4403,1.4364,1.4403,1.4347,1.4382,1.4366,1.4362,1.4359,1.4354,1.4397,1.4325,1.4212,1.4199,1.4352,1.4353,1.4354,0,1.4519,1.4478,1.4433,1.4425,1.4415,1.4393,1.4387,1.4376,1.436,1.434,1.4329,1.4304,1.429,1.4269,1.4276,1.4304,1.4219,1.4259,1.4217,1.4217,1.4196,1.4197,1.4076,1.4189,1.419,1.419,1.419,0,1.4426,1.4384,1.4398,1.437,1.4324,1.4339,1.4292,1.429,1.4279,1.425,1.4272,1.4244,1.4256,1.4228,1.4233,1.4186,1.4179,1.4178,1.418,1.4175,1.4175,1.4163,1.4168,1.4187,1.4187,1.4188,1.4189,0,1.4331,1.4339,1.4292,1.4287,1.4284,1.425,1.4245,1.4218,1.4221,1.4183,1.4175,1.4178,1.4146,1.4152,1.4117,1.412,1.406,1.4069,1.4065,1.4066,1.4024,1.4027,1.3889,1.3871,1.3998,1.3997,1.3996,0,1.4271,1.4239,1.4231,1.4214,1.4207,1.4179,1.4163,1.4177,1.4159,1.4141,1.4116,1.4087,1.4064,1.4012,1.4009,1.3982,1.399,1.3943,1.3985,1.3982,1.3986,1.3987,1.3984,1.3934,1.3933,1.3931,1.393,0,1.4161,1.4167,1.4144,1.4122,1.4103,1.4085,1.407,1.4055,1.4067,1.4045,1.4014,1.3996,1.3961,1.3931,1.3906,1.3898,1.3915,1.3918,1.3906,1.39,1.3898,1.3897,1.404,1.392,1.3921,1.3922,1.3922,1.3923,1.408,1.4053,1.4044,1.4017,1.4007,1.3993,1.3967,1.3967,1.3942,1.3915,1.3924,1.3888,1.3875,1.3843,1.3833,1.3804,1.382,1.3804,1.38,1.3795,1.3789,1.3905,1.3799,1.38,1.38,1.38,1.38,0,1.3971,1.3966,1.3942,1.392,1.3899,1.392,1.3904,1.3884,1.3853,1.384,1.3817,1.3781,1.3752,1.3748,1.372,1.3698,1.3705,1.369,1.369,1.3688,1.3777,1.3788,1.3684,1.3684,1.3684,1.3684,1.3684,1.3684,1.3911,1.3866,1.3871,1.3821,1.3816,1.3782,1.3771,1.3757,1.3747,1.3706,1.3683,1.3681,1.3671,1.3643,1.3617,1.3616,1.3604,1.3586,1.3588,1.367,1.3682,1.3693,1.3704,1.3583,1.3583,1.3501,1.35,1.35]}]]